Time,TemperatureF,DewpointF,PressureIn,WindDirection,WindDirectionDegrees,WindSpeedMPH,WindSpeedGustMPH,Humidity,HourlyPrecipIn,Conditions,Clouds,dailyrainin,SoftwareType,DateUTC
2013-02-28 00:00:00,42.1,31.6,29.61,West,270,0.0,0.4,66,0.00,,,0.00,WUHU216HW,2013-02-28 05:00:00,
2013-02-28 00:05:00,42.1,31.6,29.61,West,270,0.4,0.4,66,0.00,,,0.00,WUHU216HW,2013-02-28 05:05:00,
2013-02-28 00:10:00,42.1,31.6,29.61,West,270,0.4,0.4,66,0.00,,,0.00,WUHU216HW,2013-02-28 05:10:00,
2013-02-28 00:15:00,42.1,31.6,29.61,NNW,338,1.1,1.1,66,0.00,,,0.00,WUHU216HW,2013-02-28 05:15:00,
2013-02-28 00:20:00,42.1,31.6,29.60,North,0,1.3,1.3,66,0.00,,,0.00,WUHU216HW,2013-02-28 05:20:00,
2013-02-28 00:25:00,41.9,31.4,29.61,North,0,0.4,1.3,66,0.00,,,0.00,WUHU216HW,2013-02-28 05:25:00,
2013-02-28 00:30:00,41.9,31.4,29.61,North,0,0.0,1.1,66,0.00,,,0.00,WUHU216HW,2013-02-28 05:30:00,
2013-02-28 00:35:00,41.8,31.2,29.61,North,0,0.4,0.4,66,0.00,,,0.00,WUHU216HW,2013-02-28 05:35:00,
2013-02-28 00:40:00,41.8,31.2,29.61,North,0,0.0,0.4,66,0.00,,,0.00,WUHU216HW,2013-02-28 05:40:00,
2013-02-28 00:45:00,41.8,31.6,29.61,North,0,0.4,1.1,67,0.00,,,0.00,WUHU216HW,2013-02-28 05:45:00,
2013-02-28 00:50:00,41.6,31.4,29.61,North,0,0.4,1.1,67,0.00,,,0.00,WUHU216HW,2013-02-28 05:50:00,
2013-02-28 00:55:00,41.6,31.4,29.61,North,0,0.0,0.7,67,0.00,,,0.00,WUHU216HW,2013-02-28 05:55:00,
2013-02-28 01:00:00,41.4,31.2,29.61,North,0,0.4,0.7,67,0.00,,,0.00,WUHU216HW,2013-02-28 06:00:00,
2013-02-28 01:05:00,41.4,31.2,29.61,SSE,158,0.4,0.9,67,0.00,,,0.00,WUHU216HW,2013-02-28 06:05:00,
2013-02-28 01:10:00,41.4,31.2,29.61,SSE,158,0.0,0.9,67,0.00,,,0.00,WUHU216HW,2013-02-28 06:10:00,
2013-02-28 01:15:00,41.2,31.5,29.61,NNE,23,0.4,0.4,68,0.00,,,0.00,WUHU216HW,2013-02-28 06:15:00,
2013-02-28 01:20:00,40.9,30.7,29.61,NNE,23,0.0,0.4,67,0.00,,,0.00,WUHU216HW,2013-02-28 06:20:00,
2013-02-28 01:25:00,40.9,31.2,29.61,NNE,23,0.0,0.4,68,0.00,,,0.00,WUHU216HW,2013-02-28 06:25:00,
2013-02-28 01:30:00,40.7,31.0,29.61,NNE,23,0.2,0.2,68,0.00,,,0.00,WUHU216HW,2013-02-28 06:30:00,
2013-02-28 01:35:00,40.7,31.0,29.61,NNE,23,0.0,0.7,68,0.00,,,0.00,WUHU216HW,2013-02-28 06:35:00,
2013-02-28 01:40:00,40.7,31.3,29.61,NNW,338,0.4,0.7,69,0.00,,,0.00,WUHU216HW,2013-02-28 06:40:00,
2013-02-28 01:45:00,40.7,30.5,29.61,WNW,293,0.9,2.7,67,0.00,,,0.00,WUHU216HW,2013-02-28 06:45:00,
2013-02-28 01:50:00,41.4,30.5,29.61,NW,315,0.4,2.7,65,0.00,,,0.00,WUHU216HW,2013-02-28 06:50:00,
2013-02-28 01:55:00,41.8,31.2,29.61,West,270,0.4,2.0,66,0.00,,,0.00,WUHU216HW,2013-02-28 06:55:00,
2013-02-28 02:00:00,41.9,31.0,29.61,WNW,293,1.8,1.8,65,0.00,,,0.00,WUHU216HW,2013-02-28 07:00:00,
2013-02-28 02:06:00,42.1,30.4,29.61,West,270,2.0,3.6,63,0.00,,,0.00,WUHU216HW,2013-02-28 07:06:00,
2013-02-28 02:11:00,42.1,30.4,29.61,NW,315,2.7,3.6,63,0.00,,,0.00,WUHU216HW,2013-02-28 07:11:00,
2013-02-28 02:16:00,42.1,30.4,29.61,West,270,1.8,3.8,63,0.00,,,0.00,WUHU216HW,2013-02-28 07:16:00,
2013-02-28 02:21:00,42.1,30.8,29.61,NW,315,1.1,3.8,64,0.00,,,0.00,WUHU216HW,2013-02-28 07:21:00,
2013-02-28 02:26:00,41.9,31.0,29.61,NW,315,1.3,2.2,65,0.00,,,0.00,WUHU216HW,2013-02-28 07:26:00,
2013-02-28 02:31:00,41.8,30.9,29.61,NW,315,1.1,1.6,65,0.00,,,0.00,WUHU216HW,2013-02-28 07:31:00,
2013-02-28 02:36:00,41.6,31.4,29.61,NNW,338,1.8,1.8,67,0.00,,,0.00,WUHU216HW,2013-02-28 07:36:00,
2013-02-28 02:41:00,41.4,31.2,29.61,NNW,338,1.6,2.0,67,0.00,,,0.00,WUHU216HW,2013-02-28 07:41:00,
2013-02-28 02:46:00,41.2,31.1,29.61,NNW,338,2.5,2.5,67,0.00,,,0.00,WUHU216HW,2013-02-28 07:46:00,
2013-02-28 02:51:00,41.0,30.9,29.61,NNW,338,0.9,4.0,67,0.00,,,0.00,WUHU216HW,2013-02-28 07:51:00,
2013-02-28 02:56:00,40.9,30.0,29.61,NNW,338,3.4,4.9,65,0.00,,,0.00,WUHU216HW,2013-02-28 07:56:00,
2013-02-28 03:01:00,40.9,29.3,29.61,NW,315,3.4,4.9,63,0.00,,,0.00,WUHU216HW,2013-02-28 08:01:00,
2013-02-28 03:06:00,40.7,29.1,29.61,NNW,338,2.2,4.7,63,0.00,,,0.00,WUHU216HW,2013-02-28 08:06:00,
2013-02-28 03:11:00,40.5,28.9,29.61,NW,315,1.8,3.6,63,0.00,,,0.00,WUHU216HW,2013-02-28 08:11:00,
2013-02-28 03:16:00,40.3,28.7,29.61,NNW,338,2.2,3.4,63,0.00,,,0.00,WUHU216HW,2013-02-28 08:16:00,
2013-02-28 03:21:00,40.1,28.5,29.61,North,0,2.2,3.1,63,0.00,,,0.00,WUHU216HW,2013-02-28 08:21:00,
2013-02-28 03:26:00,40.0,28.7,29.61,North,0,2.5,2.5,64,0.00,,,0.00,WUHU216HW,2013-02-28 08:26:00,
2013-02-28 03:31:00,39.8,28.2,29.61,NNW,338,1.6,2.5,63,0.00,,,0.00,WUHU216HW,2013-02-28 08:31:00,
2013-02-28 03:36:00,39.6,28.0,29.61,NNW,338,2.2,2.5,63,0.00,,,0.00,WUHU216HW,2013-02-28 08:36:00,
2013-02-28 03:41:00,39.4,27.8,29.61,NW,315,0.9,2.5,63,0.00,,,0.00,WUHU216HW,2013-02-28 08:41:00,
2013-02-28 03:46:00,39.2,27.6,29.61,NW,315,1.1,2.2,63,0.00,,,0.00,WUHU216HW,2013-02-28 08:46:00,
2013-02-28 03:51:00,39.1,27.8,29.61,NW,315,0.7,2.7,64,0.00,,,0.00,WUHU216HW,2013-02-28 08:51:00,
2013-02-28 03:56:00,38.9,27.3,29.61,WNW,293,2.2,3.1,63,0.00,,,0.00,WUHU216HW,2013-02-28 08:56:00,
2013-02-28 04:01:00,38.9,27.3,29.61,WNW,293,3.6,4.0,63,0.00,,,0.00,WUHU216HW,2013-02-28 09:01:00,
2013-02-28 04:06:00,38.9,27.3,29.61,NW,315,2.5,4.0,63,0.00,,,0.00,WUHU216HW,2013-02-28 09:06:00,
2013-02-28 04:11:00,38.7,27.1,29.61,WSW,248,2.2,3.8,63,0.00,,,0.00,WUHU216HW,2013-02-28 09:11:00,
2013-02-28 04:16:00,38.7,27.1,29.62,NW,315,2.7,2.9,63,0.00,,,0.00,WUHU216HW,2013-02-28 09:16:00,
2013-02-28 04:21:00,38.5,26.9,29.62,WNW,293,3.6,3.6,63,0.00,,,0.00,WUHU216HW,2013-02-28 09:21:00,
2013-02-28 04:26:00,38.5,26.9,29.62,WNW,293,2.2,3.6,63,0.00,,,0.00,WUHU216HW,2013-02-28 09:26:00,
2013-02-28 04:31:00,38.5,26.9,29.62,West,270,0.7,2.5,63,0.00,,,0.00,WUHU216HW,2013-02-28 09:31:00,
2013-02-28 04:36:00,38.3,26.8,29.62,WNW,293,1.1,2.2,63,0.00,,,0.00,WUHU216HW,2013-02-28 09:36:00,
2013-02-28 04:41:00,38.2,26.7,29.62,WNW,293,2.7,2.7,63,0.00,,,0.00,WUHU216HW,2013-02-28 09:41:00,
2013-02-28 04:46:00,38.0,26.5,29.62,West,270,1.8,2.7,63,0.00,,,0.00,WUHU216HW,2013-02-28 09:46:00,
2013-02-28 04:51:00,37.8,26.3,29.62,West,270,1.6,2.0,63,0.00,,,0.00,WUHU216HW,2013-02-28 09:51:00,
2013-02-28 04:56:00,37.8,26.3,29.62,West,270,0.2,2.0,63,0.00,,,0.00,WUHU216HW,2013-02-28 09:56:00,
2013-02-28 05:01:00,37.6,26.1,29.62,West,270,0.4,1.8,63,0.00,,,0.00,WUHU216HW,2013-02-28 10:01:00,
2013-02-28 05:06:00,37.3,26.2,29.62,WNW,293,0.4,1.8,64,0.00,,,0.00,WUHU216HW,2013-02-28 10:06:00,
2013-02-28 05:11:00,37.1,26.0,29.62,WNW,293,1.1,1.1,64,0.00,,,0.00,WUHU216HW,2013-02-28 10:11:00,
2013-02-28 05:16:00,36.9,25.8,29.63,NNW,338,0.0,1.1,64,0.00,,,0.00,WUHU216HW,2013-02-28 10:16:00,
2013-02-28 05:21:00,36.7,25.7,29.63,WSW,248,1.1,1.1,64,0.00,,,0.00,WUHU216HW,2013-02-28 10:21:00,
2013-02-28 05:26:00,36.5,25.5,29.63,West,270,1.1,1.1,64,0.00,,,0.00,WUHU216HW,2013-02-28 10:26:00,
2013-02-28 05:31:00,36.5,25.5,29.63,West,270,0.4,1.1,64,0.00,,,0.00,WUHU216HW,2013-02-28 10:31:00,
2013-02-28 05:36:00,36.4,25.4,29.63,West,270,0.9,0.9,64,0.00,,,0.00,WUHU216HW,2013-02-28 10:36:00,
2013-02-28 05:41:00,36.4,24.9,29.63,West,270,2.5,2.5,63,0.00,,,0.00,WUHU216HW,2013-02-28 10:41:00,
2013-02-28 05:46:00,36.4,24.9,29.63,West,270,0.0,2.5,63,0.00,,,0.00,WUHU216HW,2013-02-28 10:46:00,
2013-02-28 05:51:00,36.2,24.9,29.63,WNW,293,1.3,2.0,63,0.00,,,0.00,WUHU216HW,2013-02-28 10:51:00,
2013-02-28 05:56:00,36.4,24.9,29.63,WNW,293,1.3,3.4,63,0.00,,,0.00,WUHU216HW,2013-02-28 10:56:00,
2013-02-28 06:01:00,36.4,24.6,29.63,WSW,248,1.8,3.4,62,0.00,,,0.00,WUHU216HW,2013-02-28 11:01:00,
2013-02-28 06:06:00,36.5,25.1,29.63,West,270,0.9,2.2,63,0.00,,,0.00,WUHU216HW,2013-02-28 11:06:00,
2013-02-28 06:11:00,36.5,25.1,29.63,WSW,248,0.4,1.6,63,0.00,,,0.00,WUHU216HW,2013-02-28 11:11:00,
2013-02-28 06:16:00,36.5,25.1,29.63,West,270,1.8,2.0,63,0.00,,,0.00,WUHU216HW,2013-02-28 11:16:00,
2013-02-28 06:21:00,36.7,24.2,29.63,WNW,293,2.5,4.5,60,0.00,,,0.00,WUHU216HW,2013-02-28 11:21:00,
2013-02-28 06:26:00,37.3,24.7,29.63,WNW,293,1.1,4.7,60,0.00,,,0.00,WUHU216HW,2013-02-28 11:26:00,
2013-02-28 06:31:00,37.4,23.9,29.63,West,270,1.3,4.7,58,0.00,,,0.00,WUHU216HW,2013-02-28 11:31:00,
2013-02-28 06:36:00,37.4,24.4,29.63,NW,315,0.7,3.8,59,0.00,,,0.00,WUHU216HW,2013-02-28 11:36:00,
2013-02-28 06:41:00,37.4,24.4,29.63,WNW,293,1.1,1.8,59,0.00,,,0.00,WUHU216HW,2013-02-28 11:41:00,
2013-02-28 06:46:00,37.4,24.4,29.63,WNW,293,1.3,1.6,59,0.00,,,0.00,WUHU216HW,2013-02-28 11:46:00,
2013-02-28 06:51:00,37.4,24.4,29.63,WNW,293,1.1,1.6,59,0.00,,,0.00,WUHU216HW,2013-02-28 11:51:00,
2013-02-28 06:56:00,37.3,24.2,29.63,NW,315,1.8,2.5,59,0.00,,,0.00,WUHU216HW,2013-02-28 11:56:00,
2013-02-28 07:01:00,37.4,23.9,29.63,West,270,1.1,2.5,58,0.00,,,0.00,WUHU216HW,2013-02-28 12:01:00,
2013-02-28 07:06:00,37.4,24.4,29.63,WNW,293,1.3,2.2,59,0.00,,,0.00,WUHU216HW,2013-02-28 12:06:00,
2013-02-28 07:11:00,37.4,24.4,29.63,WNW,293,1.6,1.8,59,0.00,,,0.00,WUHU216HW,2013-02-28 12:11:00,
2013-02-28 07:16:00,37.4,24.4,29.63,WNW,293,0.9,1.6,59,0.00,,,0.00,WUHU216HW,2013-02-28 12:16:00,
2013-02-28 07:21:00,37.4,24.8,29.63,WNW,293,0.9,1.6,60,0.00,,,0.00,WUHU216HW,2013-02-28 12:21:00,
2013-02-28 07:26:00,37.3,24.7,29.63,West,270,0.4,1.1,60,0.00,,,0.00,WUHU216HW,2013-02-28 12:26:00,
2013-02-28 07:31:00,37.1,24.5,29.63,WNW,293,0.4,0.9,60,0.00,,,0.00,WUHU216HW,2013-02-28 12:31:00,
2013-02-28 07:36:00,37.1,24.5,29.63,West,270,0.0,0.9,60,0.00,,,0.00,WUHU216HW,2013-02-28 12:36:00,
2013-02-28 07:42:00,37.1,24.5,29.63,WSW,248,0.7,0.9,60,0.00,,,0.00,WUHU216HW,2013-02-28 12:42:00,
2013-02-28 07:47:00,37.3,24.7,29.63,WSW,248,0.0,0.9,60,0.00,,,0.00,WUHU216HW,2013-02-28 12:47:00,
2013-02-28 07:53:00,37.4,24.8,29.63,WNW,293,1.3,1.3,60,0.00,,,0.00,WUHU216HW,2013-02-28 12:53:00,
2013-02-28 07:58:00,38.0,24.9,29.63,WNW,293,0.4,1.6,59,0.00,,,0.00,WUHU216HW,2013-02-28 12:58:00,
2013-02-28 08:03:00,38.5,24.9,29.63,NW,315,1.8,2.9,58,0.00,,,0.00,WUHU216HW,2013-02-28 13:03:00,
2013-02-28 08:08:00,38.9,24.8,29.63,WNW,293,1.1,2.9,57,0.00,,,0.00,WUHU216HW,2013-02-28 13:08:00,
2013-02-28 08:13:00,38.9,25.8,29.63,WNW,293,2.0,2.2,59,0.00,,,0.00,WUHU216HW,2013-02-28 13:13:00,
2013-02-28 08:18:00,39.2,26.0,29.63,West,270,1.1,2.2,59,0.00,,,0.00,WUHU216HW,2013-02-28 13:18:00,
2013-02-28 08:23:00,39.2,26.0,29.63,SSW,203,2.7,2.7,59,0.00,,,0.00,WUHU216HW,2013-02-28 13:23:00,
2013-02-28 08:28:00,39.6,25.5,29.63,WNW,293,0.9,2.7,57,0.00,,,0.00,WUHU216HW,2013-02-28 13:28:00,
2013-02-28 08:33:00,39.6,25.5,29.63,WSW,248,2.5,3.8,57,0.00,,,0.00,WUHU216HW,2013-02-28 13:33:00,
2013-02-28 08:38:00,39.8,25.3,29.63,WNW,293,1.1,4.3,56,0.00,,,0.00,WUHU216HW,2013-02-28 13:38:00,
2013-02-28 08:43:00,40.0,25.8,29.63,WNW,293,2.5,4.3,57,0.00,,,0.00,WUHU216HW,2013-02-28 13:43:00,
2013-02-28 08:48:00,40.0,25.0,29.63,WNW,293,0.9,2.9,55,0.00,,,0.00,WUHU216HW,2013-02-28 13:48:00,
2013-02-28 08:53:00,40.0,25.4,29.63,West,270,1.3,2.9,56,0.00,,,0.00,WUHU216HW,2013-02-28 13:53:00,
2013-02-28 08:58:00,40.3,25.7,29.63,NW,315,1.8,3.1,56,0.00,,,0.00,WUHU216HW,2013-02-28 13:58:00,
2013-02-28 09:03:00,40.7,25.7,29.63,West,270,0.9,3.1,55,0.00,,,0.00,WUHU216HW,2013-02-28 14:03:00,
2013-02-28 09:08:00,40.7,26.1,29.63,NW,315,1.1,4.3,56,0.00,,,0.00,WUHU216HW,2013-02-28 14:08:00,
2013-02-28 09:13:00,41.0,26.5,29.63,West,270,0.4,4.3,56,0.00,,,0.00,WUHU216HW,2013-02-28 14:13:00,
2013-02-28 09:18:00,41.0,26.0,29.63,West,270,1.1,2.5,55,0.00,,,0.00,WUHU216HW,2013-02-28 14:18:00,
2013-02-28 09:23:00,41.0,26.0,29.63,NNW,338,0.9,2.5,55,0.00,,,0.00,WUHU216HW,2013-02-28 14:23:00,
2013-02-28 09:28:00,41.0,26.0,29.63,West,270,0.9,2.5,55,0.00,,,0.00,WUHU216HW,2013-02-28 14:28:00,
2013-02-28 09:33:00,41.4,26.4,29.63,SW,225,3.1,4.0,55,0.00,,,0.00,WUHU216HW,2013-02-28 14:33:00,
2013-02-28 09:38:00,41.8,26.3,29.63,WNW,293,2.0,4.9,54,0.00,,,0.00,WUHU216HW,2013-02-28 14:38:00,
2013-02-28 09:43:00,41.8,26.3,29.62,WSW,248,2.5,4.9,54,0.00,,,0.00,WUHU216HW,2013-02-28 14:43:00,
2013-02-28 09:48:00,41.6,26.6,29.62,WNW,293,3.4,3.4,55,0.00,,,0.00,WUHU216HW,2013-02-28 14:48:00,
2013-02-28 09:53:00,41.9,26.5,29.63,West,270,1.1,3.8,54,0.00,,,0.00,WUHU216HW,2013-02-28 14:53:00,
2013-02-28 09:58:00,42.1,26.7,29.63,WNW,293,1.8,3.8,54,0.00,,,0.00,WUHU216HW,2013-02-28 14:58:00,
2013-02-28 10:03:00,41.4,25.9,29.62,WNW,293,1.1,2.9,54,0.00,,,0.00,WUHU216HW,2013-02-28 15:03:00,
2013-02-28 10:08:00,41.6,26.6,29.62,WNW,293,2.2,3.1,55,0.00,,,0.00,WUHU216HW,2013-02-28 15:08:00,
2013-02-28 10:13:00,41.4,26.8,29.63,WSW,248,1.6,3.1,56,0.00,,,0.00,WUHU216HW,2013-02-28 15:13:00,
2013-02-28 10:18:00,41.4,26.8,29.63,NW,315,2.9,3.4,56,0.00,,,0.00,WUHU216HW,2013-02-28 15:18:00,
2013-02-28 10:23:00,41.2,26.7,29.63,North,0,1.6,3.4,56,0.00,,,0.00,WUHU216HW,2013-02-28 15:23:00,
2013-02-28 10:28:00,41.2,26.7,29.62,NW,315,2.5,2.9,56,0.00,,,0.00,WUHU216HW,2013-02-28 15:28:00,
2013-02-28 10:33:00,40.7,26.6,29.63,NW,315,1.3,2.5,57,0.00,,,0.00,WUHU216HW,2013-02-28 15:33:00,
2013-02-28 10:38:00,40.7,26.6,29.63,NNW,338,1.8,2.5,57,0.00,,,0.00,WUHU216HW,2013-02-28 15:38:00,
2013-02-28 10:43:00,40.7,27.0,29.63,West,270,0.2,2.0,58,0.00,,,0.00,WUHU216HW,2013-02-28 15:43:00,
2013-02-28 10:48:00,40.7,27.0,29.63,WNW,293,1.3,2.0,58,0.00,,,0.00,WUHU216HW,2013-02-28 15:48:00,
2013-02-28 10:53:00,40.7,27.0,29.63,WSW,248,0.4,2.2,58,0.00,,,0.00,WUHU216HW,2013-02-28 15:53:00,
2013-02-28 10:58:00,40.7,27.0,29.63,West,270,1.1,3.6,58,0.00,,,0.00,WUHU216HW,2013-02-28 15:58:00,
2013-02-28 11:03:00,40.5,27.3,29.63,WNW,293,1.1,3.6,59,0.00,,,0.00,WUHU216HW,2013-02-28 16:03:00,
2013-02-28 11:08:00,40.0,27.5,29.63,NW,315,2.9,2.9,61,0.00,,,0.00,WUHU216HW,2013-02-28 16:08:00,
2013-02-28 11:13:00,39.8,28.2,29.63,WSW,248,1.1,3.4,63,0.00,,,0.00,WUHU216HW,2013-02-28 16:13:00,
2013-02-28 11:18:00,39.6,28.4,29.63,West,270,3.4,3.4,64,0.00,,,0.00,WUHU216HW,2013-02-28 16:18:00,
2013-02-28 11:23:00,39.8,28.9,29.63,WNW,293,2.9,3.4,65,0.00,,,0.00,WUHU216HW,2013-02-28 16:23:00,
2013-02-28 11:28:00,40.1,28.1,29.63,NW,315,2.7,4.0,62,0.00,,,0.00,WUHU216HW,2013-02-28 16:28:00,
2013-02-28 11:33:00,40.3,27.9,29.63,West,270,3.1,4.0,61,0.00,,,0.00,WUHU216HW,2013-02-28 16:33:00,
2013-02-28 11:38:00,40.7,27.9,29.63,West,270,1.6,4.5,60,0.00,,,0.00,WUHU216HW,2013-02-28 16:38:00,
2013-02-28 11:43:00,40.9,27.6,29.63,NW,315,4.7,4.7,59,0.00,,,0.00,WUHU216HW,2013-02-28 16:43:00,
2013-02-28 11:48:00,40.9,27.6,29.63,NW,315,1.8,5.4,59,0.00,,,0.00,WUHU216HW,2013-02-28 16:48:00,
2013-02-28 11:53:00,41.0,26.9,29.63,WNW,293,4.5,5.4,57,0.00,,,0.00,WUHU216HW,2013-02-28 16:53:00,
2013-02-28 11:58:00,41.0,26.5,29.63,WNW,293,4.7,5.6,56,0.00,,,0.00,WUHU216HW,2013-02-28 16:58:00,
2013-02-28 12:03:00,40.7,26.1,29.63,WNW,293,4.0,5.6,56,0.00,,,0.00,WUHU216HW,2013-02-28 17:03:00,
2013-02-28 12:08:00,40.7,25.7,29.63,WNW,293,5.1,5.1,55,0.00,,,0.00,WUHU216HW,2013-02-28 17:08:00,
2013-02-28 12:13:00,40.7,26.1,29.63,South,180,1.6,5.1,56,0.00,,,0.00,WUHU216HW,2013-02-28 17:13:00,
2013-02-28 12:18:00,40.7,26.6,29.63,West,270,4.9,6.0,57,0.00,,,0.00,WUHU216HW,2013-02-28 17:18:00,
2013-02-28 12:23:00,40.7,26.1,29.63,NNW,338,1.1,6.0,56,0.00,,,0.00,WUHU216HW,2013-02-28 17:23:00,
2013-02-28 12:28:00,40.7,26.6,29.63,WNW,293,2.0,2.5,57,0.00,,,0.00,WUHU216HW,2013-02-28 17:28:00,
2013-02-28 12:33:00,40.9,26.3,29.63,SW,225,2.9,3.6,56,0.00,,,0.00,WUHU216HW,2013-02-28 17:33:00,
2013-02-28 12:38:00,41.0,26.5,29.63,West,270,4.9,4.9,56,0.00,,,0.00,WUHU216HW,2013-02-28 17:38:00,
2013-02-28 12:43:00,41.2,26.2,29.63,NW,315,3.1,4.9,55,0.00,,,0.00,WUHU216HW,2013-02-28 17:43:00,
2013-02-28 12:48:00,41.2,26.2,29.62,West,270,3.1,3.1,55,0.00,,,0.00,WUHU216HW,2013-02-28 17:48:00,
2013-02-28 12:53:00,41.8,26.3,29.62,NW,315,2.0,3.1,54,0.00,,,0.00,WUHU216HW,2013-02-28 17:53:00,
2013-02-28 12:58:00,41.9,25.1,29.62,NW,315,2.5,4.9,51,0.00,,,0.00,WUHU216HW,2013-02-28 17:58:00,
2013-02-28 13:03:00,42.1,25.3,29.62,NW,315,1.1,4.9,51,0.00,,,0.00,WUHU216HW,2013-02-28 18:03:00,
2013-02-28 13:08:00,41.9,25.6,29.62,WSW,248,1.6,4.9,52,0.00,,,0.00,WUHU216HW,2013-02-28 18:08:00,
2013-02-28 13:13:00,42.1,25.8,29.62,WNW,293,5.8,5.8,52,0.00,,,0.00,WUHU216HW,2013-02-28 18:13:00,
2013-02-28 13:18:00,42.1,24.8,29.61,WNW,293,2.2,8.1,50,0.00,,,0.00,WUHU216HW,2013-02-28 18:18:00,
2013-02-28 13:23:00,41.8,24.5,29.61,NW,315,3.4,8.1,50,0.00,,,0.00,WUHU216HW,2013-02-28 18:23:00,
2013-02-28 13:28:00,41.8,25.4,29.61,WNW,293,0.7,4.7,52,0.00,,,0.00,WUHU216HW,2013-02-28 18:28:00,
2013-02-28 13:33:00,42.1,25.3,29.61,West,270,3.4,4.7,51,0.00,,,0.00,WUHU216HW,2013-02-28 18:33:00,
2013-02-28 13:38:00,42.3,24.5,29.61,West,270,6.0,6.0,49,0.00,,,0.00,WUHU216HW,2013-02-28 18:38:00,
2013-02-28 13:43:00,42.1,25.3,29.61,NW,315,1.1,6.0,51,0.00,,,0.00,WUHU216HW,2013-02-28 18:43:00,
2013-02-28 13:48:00,42.1,24.8,29.61,WSW,248,3.4,6.0,50,0.00,,,0.00,WUHU216HW,2013-02-28 18:48:00,
2013-02-28 13:53:00,42.1,24.8,29.61,NNW,338,5.1,6.0,50,0.00,,,0.00,WUHU216HW,2013-02-28 18:53:00,
2013-02-28 13:58:00,42.1,25.3,29.61,NW,315,4.0,5.4,51,0.00,,,0.00,WUHU216HW,2013-02-28 18:58:00,
2013-02-28 14:03:00,42.1,26.2,29.61,North,0,2.0,5.6,53,0.00,,,0.00,WUHU216HW,2013-02-28 19:03:00,
2013-02-28 14:08:00,42.7,25.4,29.61,West,270,4.5,5.6,50,0.00,,,0.00,WUHU216HW,2013-02-28 19:08:00,
2013-02-28 14:13:00,42.8,26.5,29.61,NW,315,2.2,5.4,52,0.00,,,0.00,WUHU216HW,2013-02-28 19:13:00,
2013-02-28 14:18:00,42.7,25.8,29.61,NNW,338,2.5,4.3,51,0.00,,,0.00,WUHU216HW,2013-02-28 19:18:00,
2013-02-28 14:23:00,42.7,26.3,29.61,West,270,1.8,5.8,52,0.00,,,0.00,WUHU216HW,2013-02-28 19:23:00,
2013-02-28 14:28:00,42.7,26.6,29.61,NW,315,5.1,5.8,53,0.00,,,0.00,WUHU216HW,2013-02-28 19:28:00,
2013-02-28 14:33:00,42.5,25.7,29.61,NW,315,4.0,6.7,51,0.00,,,0.00,WUHU216HW,2013-02-28 19:33:00,
2013-02-28 14:38:00,41.9,24.7,29.62,WNW,293,4.7,7.2,50,0.00,,,0.00,WUHU216HW,2013-02-28 19:38:00,
2013-02-28 14:43:00,42.1,24.8,29.62,NNW,338,2.5,7.2,50,0.00,,,0.00,WUHU216HW,2013-02-28 19:43:00,
2013-02-28 14:48:00,42.3,25.5,29.62,NW,315,5.4,5.4,51,0.00,,,0.00,WUHU216HW,2013-02-28 19:48:00,
2013-02-28 14:53:00,42.3,25.5,29.61,South,180,2.9,5.4,51,0.00,,,0.00,WUHU216HW,2013-02-28 19:53:00,
2013-02-28 14:58:00,42.7,26.3,29.62,WNW,293,5.6,5.6,52,0.00,,,0.00,WUHU216HW,2013-02-28 19:58:00,
2013-02-28 15:03:00,42.5,26.6,29.61,West,270,4.7,6.0,53,0.00,,,0.00,WUHU216HW,2013-02-28 20:03:00,
2013-02-28 15:08:00,42.3,25.5,29.62,WNW,293,4.7,6.0,51,0.00,,,0.00,WUHU216HW,2013-02-28 20:08:00,
2013-02-28 15:13:00,42.5,26.6,29.62,NW,315,4.0,5.4,53,0.00,,,0.00,WUHU216HW,2013-02-28 20:13:00,
2013-02-28 15:18:00,42.1,25.8,29.62,NW,315,5.4,5.4,52,0.00,,,0.00,WUHU216HW,2013-02-28 20:18:00,
2013-02-28 15:23:00,42.1,26.2,29.62,NW,315,5.6,5.6,53,0.00,,,0.00,WUHU216HW,2013-02-28 20:23:00,
2013-02-28 15:28:00,41.8,25.8,29.62,NNW,338,5.4,6.9,53,0.00,,,0.00,WUHU216HW,2013-02-28 20:28:00,
2013-02-28 15:33:00,41.8,25.8,29.62,NW,315,1.8,6.9,53,0.00,,,0.00,WUHU216HW,2013-02-28 20:33:00,
2013-02-28 15:38:00,41.9,26.5,29.61,WSW,248,2.2,5.4,54,0.00,,,0.00,WUHU216HW,2013-02-28 20:38:00,
2013-02-28 15:43:00,42.1,26.7,29.61,SSE,158,1.3,5.4,54,0.00,,,0.00,WUHU216HW,2013-02-28 20:43:00,
2013-02-28 15:48:00,42.1,26.7,29.61,West,270,3.6,3.6,54,0.00,,,0.00,WUHU216HW,2013-02-28 20:48:00,
2013-02-28 15:53:00,42.3,26.7,29.61,West,270,2.5,3.6,54,0.00,,,0.00,WUHU216HW,2013-02-28 20:53:00,
2013-02-28 15:58:00,42.3,25.9,29.61,WNW,293,3.4,5.6,52,0.00,,,0.00,WUHU216HW,2013-02-28 20:58:00,
2013-02-28 16:03:00,42.1,26.7,29.61,NW,315,2.2,5.6,54,0.00,,,0.00,WUHU216HW,2013-02-28 21:03:00,
2013-02-28 16:08:00,41.9,26.5,29.61,WNW,293,0.4,5.1,54,0.00,,,0.00,WUHU216HW,2013-02-28 21:08:00,
2013-02-28 16:13:00,41.9,26.5,29.61,WNW,293,2.9,5.1,54,0.00,,,0.00,WUHU216HW,2013-02-28 21:13:00,
2013-02-28 16:18:00,41.8,26.7,29.61,NNW,338,2.9,5.1,55,0.00,,,0.00,WUHU216HW,2013-02-28 21:18:00,
2013-02-28 16:23:00,41.6,26.6,29.61,NW,315,3.6,4.7,55,0.00,,,0.00,WUHU216HW,2013-02-28 21:23:00,
2013-02-28 16:28:00,41.4,25.9,29.62,West,270,4.5,5.6,54,0.00,,,0.00,WUHU216HW,2013-02-28 21:28:00,
2013-02-28 16:33:00,41.0,26.0,29.62,NW,315,3.4,6.3,55,0.00,,,0.00,WUHU216HW,2013-02-28 21:33:00,
2013-02-28 16:38:00,41.0,26.0,29.62,NW,315,3.6,6.3,55,0.00,,,0.00,WUHU216HW,2013-02-28 21:38:00,
2013-02-28 16:43:00,41.0,26.5,29.62,NW,315,5.6,5.6,56,0.00,,,0.00,WUHU216HW,2013-02-28 21:43:00,
2013-02-28 16:48:00,41.2,26.7,29.62,WNW,293,3.1,5.6,56,0.00,,,0.00,WUHU216HW,2013-02-28 21:48:00,
2013-02-28 16:53:00,41.0,26.5,29.62,NW,315,2.9,5.6,56,0.00,,,0.00,WUHU216HW,2013-02-28 21:53:00,
2013-02-28 16:58:00,41.0,26.9,29.62,NW,315,2.5,5.6,57,0.00,,,0.00,WUHU216HW,2013-02-28 21:58:00,
2013-02-28 17:03:00,41.0,27.4,29.63,NW,315,1.1,5.6,58,0.00,,,0.00,WUHU216HW,2013-02-28 22:03:00,
2013-02-28 17:08:00,40.7,26.6,29.63,WNW,293,3.8,5.4,57,0.00,,,0.00,WUHU216HW,2013-02-28 22:08:00,
2013-02-28 17:13:00,40.7,27.0,29.63,WSW,248,3.4,3.8,58,0.00,,,0.00,WUHU216HW,2013-02-28 22:13:00,
2013-02-28 17:18:00,40.1,26.9,29.63,NW,315,2.5,4.0,59,0.00,,,0.00,WUHU216HW,2013-02-28 22:18:00,
2013-02-28 17:24:00,40.0,26.7,29.64,North,0,1.6,4.7,59,0.00,,,0.00,WUHU216HW,2013-02-28 22:24:00,
2013-02-28 17:29:00,40.0,26.7,29.64,NW,315,2.7,4.7,59,0.00,,,0.00,WUHU216HW,2013-02-28 22:29:00,
2013-02-28 17:34:00,40.0,26.7,29.64,NW,315,0.7,3.4,59,0.00,,,0.00,WUHU216HW,2013-02-28 22:34:00,
2013-02-28 17:39:00,40.0,27.2,29.64,NNW,338,1.8,2.7,60,0.00,,,0.00,WUHU216HW,2013-02-28 22:39:00,
2013-02-28 17:44:00,40.0,26.7,29.64,NNW,338,0.7,4.7,59,0.00,,,0.00,WUHU216HW,2013-02-28 22:44:00,
2013-02-28 17:49:00,40.0,26.7,29.64,West,270,1.1,4.7,59,0.00,,,0.00,WUHU216HW,2013-02-28 22:49:00,
2013-02-28 17:54:00,40.0,26.7,29.64,West,270,1.1,2.9,59,0.00,,,0.00,WUHU216HW,2013-02-28 22:54:00,
2013-02-28 17:59:00,40.0,26.3,29.64,WNW,293,4.5,4.5,58,0.00,,,0.00,WUHU216HW,2013-02-28 22:59:00,
2013-02-28 18:04:00,40.0,25.8,29.64,South,180,2.9,4.5,57,0.00,,,0.00,WUHU216HW,2013-02-28 23:04:00,
2013-02-28 18:09:00,40.0,25.8,29.65,NW,315,4.3,5.6,57,0.00,,,0.00,WUHU216HW,2013-02-28 23:09:00,
2013-02-28 18:14:00,40.0,25.8,29.65,WNW,293,1.1,5.6,57,0.00,,,0.00,WUHU216HW,2013-02-28 23:14:00,
2013-02-28 18:19:00,40.0,25.8,29.66,WNW,293,2.5,5.6,57,0.00,,,0.00,WUHU216HW,2013-02-28 23:19:00,
2013-02-28 18:24:00,40.0,25.4,29.66,North,0,3.1,7.6,56,0.00,,,0.00,WUHU216HW,2013-02-28 23:24:00,
2013-02-28 18:29:00,40.0,25.4,29.66,NW,315,4.0,7.6,56,0.00,,,0.00,WUHU216HW,2013-02-28 23:29:00,
2013-02-28 18:34:00,40.0,25.4,29.66,WNW,293,4.7,4.7,56,0.00,,,0.00,WUHU216HW,2013-02-28 23:34:00,
2013-02-28 18:39:00,40.0,25.4,29.66,NW,315,3.4,4.7,56,0.00,,,0.00,WUHU216HW,2013-02-28 23:39:00,
2013-02-28 18:44:00,40.0,25.4,29.66,NW,315,3.8,4.5,56,0.00,,,0.00,WUHU216HW,2013-02-28 23:44:00,
2013-02-28 18:49:00,40.0,25.8,29.67,WNW,293,2.2,4.7,57,0.00,,,0.00,WUHU216HW,2013-02-28 23:49:00,
2013-02-28 18:54:00,40.0,25.8,29.67,WSW,248,1.8,4.7,57,0.00,,,0.00,WUHU216HW,2013-02-28 23:54:00,
2013-02-28 18:59:00,39.8,25.7,29.67,NW,315,2.5,4.0,57,0.00,,,0.00,WUHU216HW,2013-02-28 23:59:00,
2013-02-28 19:04:00,39.8,25.7,29.67,WSW,248,2.0,4.7,57,0.00,,,0.00,WUHU216HW,2013-03-01 00:04:00,
2013-02-28 19:09:00,39.8,26.1,29.67,NW,315,3.1,4.7,58,0.00,,,0.00,WUHU216HW,2013-03-01 00:09:00,
2013-02-28 19:14:00,39.6,25.9,29.67,WNW,293,0.9,4.0,58,0.00,,,0.00,WUHU216HW,2013-03-01 00:14:00,
2013-02-28 19:19:00,39.6,26.4,29.67,WNW,293,4.3,4.9,59,0.00,,,0.00,WUHU216HW,2013-03-01 00:19:00,
2013-02-28 19:24:00,39.6,26.4,29.68,NW,315,2.2,4.9,59,0.00,,,0.00,WUHU216HW,2013-03-01 00:24:00,
2013-02-28 19:29:00,39.6,26.4,29.68,NW,315,2.7,4.7,59,0.00,,,0.00,WUHU216HW,2013-03-01 00:29:00,
2013-02-28 19:34:00,39.6,26.8,29.68,West,270,2.7,4.7,60,0.00,,,0.00,WUHU216HW,2013-03-01 00:34:00,
2013-02-28 19:39:00,39.6,26.8,29.68,WNW,293,1.6,3.8,60,0.00,,,0.00,WUHU216HW,2013-03-01 00:39:00,
2013-02-28 19:44:00,39.6,26.8,29.68,WNW,293,4.7,4.7,60,0.00,,,0.00,WUHU216HW,2013-03-01 00:44:00,
2013-02-28 19:49:00,39.6,26.8,29.68,WNW,293,2.2,5.4,60,0.00,,,0.00,WUHU216HW,2013-03-01 00:49:00,
2013-02-28 19:54:00,39.6,27.2,29.68,NW,315,1.8,5.4,61,0.00,,,0.00,WUHU216HW,2013-03-01 00:54:00,
2013-02-28 19:59:00,39.4,27.0,29.68,NW,315,4.7,4.7,61,0.00,,,0.00,WUHU216HW,2013-03-01 00:59:00,
2013-02-28 20:04:00,39.4,27.4,29.68,West,270,3.4,4.7,62,0.00,,,0.00,WUHU216HW,2013-03-01 01:04:00,
2013-02-28 20:09:00,39.4,27.4,29.68,NW,315,3.4,4.7,62,0.00,,,0.00,WUHU216HW,2013-03-01 01:09:00,
2013-02-28 20:14:00,39.4,27.4,29.69,WNW,293,3.4,4.3,62,0.00,,,0.00,WUHU216HW,2013-03-01 01:14:00,
2013-02-28 20:19:00,39.2,27.2,29.69,NW,315,2.7,3.4,62,0.00,,,0.00,WUHU216HW,2013-03-01 01:19:00,
2013-02-28 20:24:00,39.2,27.6,29.69,WNW,293,2.5,3.4,63,0.00,,,0.00,WUHU216HW,2013-03-01 01:24:00,
2013-02-28 20:29:00,39.2,27.6,29.69,NW,315,4.5,4.5,63,0.00,,,0.00,WUHU216HW,2013-03-01 01:29:00,
2013-02-28 20:34:00,39.2,27.6,29.69,West,270,2.2,4.5,63,0.00,,,0.00,WUHU216HW,2013-03-01 01:34:00,
2013-02-28 20:39:00,39.2,27.6,29.69,WNW,293,2.0,2.7,63,0.00,,,0.00,WUHU216HW,2013-03-01 01:39:00,
2013-02-28 20:44:00,39.2,27.6,29.69,WNW,293,1.1,3.4,63,0.00,,,0.00,WUHU216HW,2013-03-01 01:44:00,
2013-02-28 20:49:00,39.2,27.6,29.69,NNW,338,3.4,4.9,63,0.00,,,0.00,WUHU216HW,2013-03-01 01:49:00,
2013-02-28 20:54:00,39.2,27.6,29.69,WNW,293,5.4,5.4,63,0.00,,,0.00,WUHU216HW,2013-03-01 01:54:00,
2013-02-28 20:59:00,39.4,27.8,29.69,WNW,293,4.3,5.4,63,0.00,,,0.00,WUHU216HW,2013-03-01 01:59:00,
2013-02-28 21:04:00,39.4,27.8,29.69,NW,315,4.0,4.7,63,0.00,,,0.00,WUHU216HW,2013-03-01 02:04:00,
2013-02-28 21:09:00,39.4,27.8,29.69,WNW,293,2.7,4.7,63,0.00,,,0.00,WUHU216HW,2013-03-01 02:09:00,
2013-02-28 21:14:00,39.4,27.8,29.69,WNW,293,3.4,3.8,63,0.00,,,0.00,WUHU216HW,2013-03-01 02:14:00,
2013-02-28 21:19:00,39.4,27.8,29.69,NW,315,3.1,5.4,63,0.00,,,0.00,WUHU216HW,2013-03-01 02:19:00,
2013-02-28 21:24:00,39.6,28.0,29.70,WSW,248,4.7,5.4,63,0.00,,,0.00,WUHU216HW,2013-03-01 02:24:00,
2013-02-28 21:29:00,39.6,28.0,29.70,WNW,293,5.1,5.4,63,0.00,,,0.00,WUHU216HW,2013-03-01 02:29:00,
2013-02-28 21:34:00,39.6,28.0,29.70,NNW,338,3.1,5.1,63,0.00,,,0.00,WUHU216HW,2013-03-01 02:34:00,
2013-02-28 21:39:00,39.6,28.0,29.70,NNW,338,4.3,7.8,63,0.00,,,0.00,WUHU216HW,2013-03-01 02:39:00,
2013-02-28 21:44:00,39.6,28.0,29.70,NNW,338,4.5,7.8,63,0.00,,,0.00,WUHU216HW,2013-03-01 02:44:00,
2013-02-28 21:49:00,39.6,28.0,29.70,NNW,338,6.7,7.4,63,0.00,,,0.00,WUHU216HW,2013-03-01 02:49:00,
2013-02-28 21:54:00,39.6,28.0,29.70,NNW,338,6.3,7.4,63,0.00,,,0.00,WUHU216HW,2013-03-01 02:54:00,
2013-02-28 21:59:00,39.6,28.0,29.70,NNW,338,6.3,6.3,63,0.00,,,0.00,WUHU216HW,2013-03-01 02:59:00,
2013-02-28 22:04:00,39.4,27.8,29.70,NW,315,2.9,6.3,63,0.00,,,0.00,WUHU216HW,2013-03-01 03:04:00,
2013-02-28 22:09:00,39.4,28.2,29.69,NW,315,2.9,6.0,64,0.00,,,0.00,WUHU216HW,2013-03-01 03:09:00,
2013-02-28 22:14:00,39.2,28.0,29.69,NNE,23,4.7,6.5,64,0.00,,,0.00,WUHU216HW,2013-03-01 03:14:00,
2013-02-28 22:19:00,39.2,28.0,29.69,NW,315,3.1,6.5,64,0.00,,,0.00,WUHU216HW,2013-03-01 03:19:00,
2013-02-28 22:24:00,39.1,27.8,29.70,NNW,338,6.3,6.3,64,0.00,,,0.00,WUHU216HW,2013-03-01 03:24:00,
2013-02-28 22:30:00,39.1,28.2,29.70,North,0,1.6,6.3,65,0.00,,,0.00,WUHU216HW,2013-03-01 03:30:00,
2013-02-28 22:35:00,39.1,28.2,29.69,NW,315,3.4,4.9,65,0.00,,,0.00,WUHU216HW,2013-03-01 03:35:00,
2013-02-28 22:40:00,38.9,28.0,29.69,NNW,338,2.9,4.9,65,0.00,,,0.00,WUHU216HW,2013-03-01 03:40:00,
2013-02-28 22:45:00,38.9,28.0,29.69,NW,315,1.3,4.0,65,0.00,,,0.00,WUHU216HW,2013-03-01 03:45:00,
2013-02-28 22:50:00,38.7,27.9,29.69,NNW,338,2.0,2.0,65,0.00,,,0.00,WUHU216HW,2013-03-01 03:50:00,
2013-02-28 22:55:00,38.7,27.9,29.70,NNW,338,3.6,5.4,65,0.00,,,0.00,WUHU216HW,2013-03-01 03:55:00,
2013-02-28 23:00:00,38.5,27.4,29.70,WNW,293,2.2,5.4,64,0.00,,,0.00,WUHU216HW,2013-03-01 04:00:00,
2013-02-28 23:05:00,38.5,27.4,29.70,NW,315,2.2,3.4,64,0.00,,,0.00,WUHU216HW,2013-03-01 04:05:00,
2013-02-28 23:09:00,38.5,27.4,29.70,NW,315,2.2,3.4,64,0.00,,,0.00,WUHU216HW,2013-03-01 04:09:00,
2013-02-28 23:14:00,38.5,27.7,29.70,North,0,2.2,4.3,65,0.00,,,0.00,WUHU216HW,2013-03-01 04:14:00,
2013-02-28 23:19:00,38.5,27.7,29.70,NW,315,0.2,4.3,65,0.00,,,0.00,WUHU216HW,2013-03-01 04:19:00,
2013-02-28 23:24:00,38.5,27.7,29.70,NNW,338,0.4,2.7,65,0.00,,,0.00,WUHU216HW,2013-03-01 04:24:00,
2013-02-28 23:29:00,38.5,27.7,29.71,NW,315,1.1,1.8,65,0.00,,,0.00,WUHU216HW,2013-03-01 04:29:00,
2013-02-28 23:34:00,38.5,27.7,29.71,WNW,293,3.6,3.6,65,0.00,,,0.00,WUHU216HW,2013-03-01 04:34:00,
2013-02-28 23:39:00,38.5,27.7,29.71,NW,315,2.2,3.6,65,0.00,,,0.00,WUHU216HW,2013-03-01 04:39:00,
2013-02-28 23:44:00,38.5,27.7,29.71,NNW,338,2.2,2.9,65,0.00,,,0.00,WUHU216HW,2013-03-01 04:44:00,
2013-02-28 23:49:00,38.5,27.7,29.71,NNW,338,1.6,3.1,65,0.00,,,0.00,WUHU216HW,2013-03-01 04:49:00,
2013-02-28 23:54:00,38.5,27.7,29.71,NW,315,5.4,5.4,65,0.00,,,0.00,WUHU216HW,2013-03-01 04:54:00,
2013-02-28 23:59:00,38.5,27.7,29.71,WNW,293,2.0,5.4,65,0.00,,,0.00,WUHU216HW,2013-03-01 04:59:00,